Theta_e
288 288 288 288 288 288 287 288 288 288 289 289 288 289 287 288 289 288 288 287 287 287 287 288 288 288 287 287 287 287 287 287 289 286 287 289 292 293 294 296 296 299 301
286 286 287 287 287 287 287 286 286 287 287 287 287 287 287 288 287 288 288 287 287 287 286 286 287 287 286 287 287 286 285 286 287 284 284 285 287 293 291 291 292 294 295
286 285 286 286 287 286 286 286 286 286 286 286 287 287 288 288 287 286 286 286 286 286 286 286 286 286 286 285 286 286 285 283 285 286 283 282 282 284 290 289 290 291 291
287 286 286 286 286 286 287 286 285 285 285 285 285 284 284 283 284 284 285 285 286 285 286 285 285 285 285 285 285 285 285 284 282 285 286 286 285 280 280 287 288 289 289
287 286 286 286 286 286 286 286 285 284 284 284 284 284 283 284 284 284 284 284 285 285 285 285 285 285 285 285 284 284 284 284 283 283 283 283 284 284 282 280 283 287 288
287 287 287 286 285 285 285 285 284 283 283 283 283 283 282 282 282 282 282 283 284 284 285 285 284 284 284 284 284 284 284 283 283 283 283 282 281 281 281 281 282 283 285
287 286 285 284 284 284 284 284 282 282 282 282 282 282 282 282 281 281 282 281 282 283 283 283 283 283 284 284 284 283 283 283 282 282 282 283 282 283 282 281 281 281 283
287 286 285 284 284 283 283 282 281 281 281 282 282 282 282 282 282 282 281 281 281 282 283 283 283 283 283 282 283 282 282 283 282 282 282 282 282 283 282 281 280 278 280
286 285 284 284 283 282 281 281 280 280 280 281 281 281 281 281 281 281 282 282 282 282 282 282 282 282 282 282 282 281 281 282 282 282 282 282 282 283 283 282 281 279 275
285 284 283 282 281 281 281 281 279 279 279 280 280 280 280 281 281 281 281 281 281 281 281 281 281 281 281 281 281 281 281 281 281 281 281 281 281 282 282 282 282 281 279
283 282 281 281 281 280 280 279 279 278 279 279 279 279 280 280 280 280 280 280 281 280 280 280 280 280 280 280 280 280 280 280 280 280 280 279 280 280 281 281 281 280 280
282 281 280 279 279 279 279 278 278 278 278 278 278 278 279 279 279 279 280 280 279 280 280 280 279 279 280 280 279 279 279 279 278 278 278 278 279 279 280 280 279 279 280
281 280 279 278 278 278 277 277 277 277 278 278 278 278 278 278 278 278 279 279 279 279 279 279 279 279 279 279 279 279 278 278 278 278 278 278 279 279 280 280 279 280 280
278 278 278 277 277 277 276 276 277 277 277 277 277 276 277 277 278 278 278 278 279 278 278 278 278 278 278 278 278 278 278 278 279 280 280 280 280 280 280 280 280 280 279
276 276 276 276 276 276 275 276 276 276 276 276 276 276 276 277 277 277 278 278 278 278 278 278 278 278 278 278 278 279 280 280 281 282 282 283 282 282 283 281 280 280 279
276 276 275 276 275 275 275 274 275 275 275 275 274 275 276 276 276 277 277 277 277 277 277 277 277 277 278 280 282 282 281 282 282 281 283 283 284 285 286 287 287 285 281
276 275 275 275 275 274 273 273 273 274 274 274 274 274 275 275 276 276 276 276 276 276 276 276 277 277 278 281 283 284 282 282 282 282 283 283 284 284 284 285 286 286 287
275 274 274 273 273 273 273 273 273 273 273 273 273 274 274 274 275 275 275 275 276 276 276 276 277 278 279 282 283 284 283 282 283 284 284 284 283 284 284 283 283 283 283
275 274 274 273 272 272 272 271 271 272 272 272 273 273 274 273 274 273 274 274 275 275 275 277 278 278 278 281 283 283 283 283 283 284 285 284 284 286 287 284 283 283 283
273 272 272 272 272 271 271 269 269 270 271 271 272 273 273 273 272 272 273 275 275 275 277 276 278 279 279 282 283 284 283 282 283 284 284 284 283 285 285 283 283 282 283
272 272 272 271 270 270 270 268 268 269 271 271 271 272 272 272 272 273 274 274 275 276 276 276 278 279 281 282 284 285 283 283 282 282 282 282 283 285 285 284 282 282 285
271 271 271 270 270 270 269 268 267 270 270 270 270 271 271 272 273 273 274 276 275 275 275 276 278 281 282 283 283 285 285 285 281 281 281 282 284 283 283 283 284 285 288
270 270 270 269 269 269 269 266 268 269 269 268 268 270 270 271 273 274 274 275 275 274 275 277 278 279 281 282 283 285 285 284 282 281 283 282 282 282 281 281 283 287 286
270 269 268 268 268 269 269 268 269 269 267 267 268 269 270 273 274 274 275 274 274 275 276 277 277 278 279 280 283 282 283 283 282 282 281 280 281 281 280 280 280 285 286
269 269 268 267 267 268 268 269 269 268 267 267 268 270 271 273 273 274 274 274 276 277 277 277 278 277 277 280 282 282 281 281 281 281 279 278 278 278 278 278 278 280 285
268 267 267 267 267 267 267 269 269 267 266 267 269 269 271 272 273 273 273 277 278 280 280 280 279 280 281 284 282 283 282 282 282 278 276 276 276 277 277 277 277 279 283
Wind_Speed
13 12 11 9 8 6 6 6 6 7 5 4 4 3 5 5 5 6 8 9 9 10 10 8 9 8 9 10 11 11 13 11 12 13 13 12 13 10 9 8 9 10 7
16 15 13 11 9 7 6 6 6 6 6 4 4 3 5 4 5 5 7 9 10 10 9 10 9 10 9 11 11 12 11 10 10 10 13 9 12 6 11 13 11 10 8
20 18 16 14 11 9 7 6 5 5 6 6 3 3 1 3 3 6 6 8 10 9 9 10 9 10 9 8 11 11 13 11 11 10 7 8 6 15 7 12 12 10 10
20 18 17 15 13 10 8 6 5 5 5 5 5 6 5 6 5 7 7 8 9 9 9 9 9 10 8 10 9 9 10 11 11 9 8 12 14 8 13 6 12 15 14
21 20 18 16 13 10 8 6 5 4 4 5 5 5 6 5 6 6 10 10 9 9 9 10 11 11 9 10 12 12 12 10 11 11 10 12 12 14 14 18 13 12 11
22 19 17 15 13 10 8 6 5 4 4 4 5 5 6 7 7 8 8 7 8 8 10 11 11 11 11 12 12 13 14 13 13 12 13 12 12 11 14 16 17 17 13
22 20 19 16 14 12 9 6 4 3 2 4 5 6 7 8 9 9 8 11 8 9 11 12 12 11 13 14 14 14 15 15 14 15 13 12 13 13 14 15 15 17 14
21 20 19 16 15 12 9 7 4 1 3 5 6 6 6 5 7 8 8 8 9 9 12 13 13 15 15 14 15 12 13 16 14 18 16 13 13 13 13 14 14 16 16
22 22 19 16 14 12 9 6 4 0 3 5 5 6 7 8 8 11 10 8 11 10 13 14 15 15 15 16 16 13 16 16 15 16 17 14 13 13 13 13 13 13 18
21 19 17 16 12 10 8 6 3 1 4 5 6 6 8 9 9 10 12 13 13 14 15 16 16 16 16 16 17 15 16 16 14 13 18 17 13 14 12 12 13 13 14
20 18 15 14 12 9 7 5 2 3 4 6 7 8 8 10 11 11 12 13 14 15 16 16 17 17 17 18 17 18 19 19 19 18 18 19 19 13 13 13 13 13 13
18 17 16 14 11 8 6 3 1 4 5 6 7 8 10 10 11 12 13 14 15 15 16 17 17 17 18 18 18 19 19 20 20 19 20 20 15 19 17 14 17 15 16
18 16 14 12 10 7 5 2 1 4 6 7 8 9 10 11 12 13 14 15 15 16 17 17 18 18 19 18 18 19 20 19 19 20 21 21 20 19 16 17 16 15 14
16 14 12 10 8 5 4 1 3 4 6 7 8 10 11 12 12 13 14 15 16 17 17 17 18 19 19 19 19 19 19 20 19 21 21 22 22 22 22 19 19 17 15
16 14 12 10 7 5 3 1 2 5 6 8 9 10 11 12 13 14 15 15 16 16 17 18 18 19 17 14 18 18 19 20 22 22 21 20 25 35 31 17 18 19 17
16 14 12 9 7 5 2 1 4 6 7 8 10 10 12 13 14 15 16 16 16 16 17 17 18 19 13 25 29 26 18 18 19 19 21 21 28 25 32 34 38 31 18
16 14 12 8 6 4 1 3 5 6 7 9 10 11 12 13 14 15 15 16 16 17 17 17 18 20 20 28 29 31 18 19 20 22 20 19 16 25 21 28 34 34 37
16 13 10 8 6 4 2 4 5 7 8 9 10 11 12 14 14 15 16 16 15 16 16 16 19 19 18 29 30 31 20 19 21 22 21 21 22 22 24 22 21 22 22
12 10 8 7 5 3 3 4 6 6 7 9 10 12 13 14 15 15 16 15 15 16 16 16 18 19 20 29 31 29 18 18 21 20 19 22 21 25 31 21 22 23 22
12 10 8 6 4 4 3 4 5 6 7 9 11 12 13 13 14 15 15 15 15 15 14 18 18 21 19 28 31 28 15 17 15 19 18 26 27 33 31 21 19 19 19
11 10 7 5 4 2 2 4 5 6 8 10 11 12 12 13 13 14 14 14 14 15 15 17 17 18 18 20 31 33 16 15 15 14 14 13 31 32 31 35 19 21 21
10 8 6 4 3 1 2 3 5 7 8 10 11 12 12 11 10 14 14 15 14 14 14 15 14 12 16 24 26 33 31 30 16 15 14 16 29 32 30 26 30 31 31
7 5 4 3 2 1 2 4 6 7 9 10 11 11 13 11 12 12 14 13 13 11 12 12 13 14 14 14 30 29 32 29 19 15 22 32 30 29 21 26 29 25 8
5 4 3 1 1 1 3 3 5 7 8 10 11 11 11 13 12 11 10 10 11 11 12 12 13 14 14 15 13 15 15 22 17 22 16 22 26 25 21 15 14 9 5
4 3 1 0 1 3 4 4 5 6 8 9 9 10 9 11 12 11 10 10 11 13 12 11 12 13 14 16 27 26 17 16 19 22 13 12 12 12 11 10 10 10 5
4 2 0 2 3 4 4 5 5 6 7 9 9 9 9 10 10 10 11 15 19 24 23 23 19 13 26 32 32 33 33 32 31 15 13 13 12 12 11 10 10 9 9
Wind_Direction
174 170 164 158 148 135 122 93 78 57 42 35 15 16 15 14 15 12 2 1 357 356 348 346 341 341 335 330 328 327 326 324 327 317 320 300 284 291 297 321 315 309 318
176 175 171 169 171 152 133 109 88 63 51 39 24 2 347 2 348 348 349 355 350 349 343 338 332 332 327 325 328 329 323 318 332 321 306 325 313 89 327 301 285 302 310
181 178 179 178 169 167 149 121 97 78 53 31 22 357 323 311 331 346 337 338 333 335 332 327 321 319 318 315 319 321 318 316 314 312 305 314 306 324 274 319 294 298 317
184 181 179 176 176 163 148 132 112 82 59 32 19 8 353 338 342 321 320 322 323 319 316 313 313 311 308 305 307 307 308 302 299 299 282 276 287 298 306 298 313 298 292
184 182 181 177 170 159 157 142 131 100 68 38 13 350 336 320 318 313 317 318 317 318 317 318 317 313 311 307 304 302 299 293 290 290 293 283 281 277 276 291 288 289 292
182 180 175 167 163 157 157 154 136 98 53 15 351 330 319 321 315 318 314 315 315 317 318 322 316 310 306 305 305 300 293 288 283 281 280 278 278 280 284 286 292 291 294
179 175 171 171 166 167 162 158 138 111 11 333 329 328 321 312 308 315 315 317 317 318 314 316 309 304 303 302 300 296 290 287 284 281 278 276 274 276 277 279 283 287 290
178 174 172 172 169 165 160 153 149 148 329 336 331 316 305 307 304 306 308 304 302 300 303 300 301 302 301 298 295 291 288 285 282 281 278 277 274 273 272 274 285 285 283
175 172 170 170 163 161 155 155 156 47 340 317 301 313 318 314 313 313 308 301 301 303 301 302 299 298 297 293 291 287 283 282 282 279 277 274 275 272 271 269 269 275 283
171 168 166 160 156 152 148 145 118 307 298 308 323 321 318 320 314 307 305 308 308 306 303 303 302 299 296 293 290 286 282 281 278 277 277 278 276 273 268 264 262 258 268
168 163 158 154 150 146 145 137 169 305 324 335 330 325 323 318 313 308 310 309 307 305 303 302 299 299 298 292 289 286 285 282 281 279 276 274 273 270 267 265 263 263 261
163 157 153 151 152 147 144 146 350 333 342 332 326 321 316 315 313 311 310 309 305 303 300 300 299 297 293 291 291 289 285 284 283 283 281 277 273 273 267 265 263 260 260
157 153 150 151 149 144 139 136 2 344 335 329 323 318 315 314 311 309 307 307 304 303 301 300 300 296 294 296 293 288 286 283 282 278 275 274 272 269 264 262 259 257 256
153 150 148 146 143 136 134 69 1 340 327 322 318 315 316 315 311 308 306 305 305 301 302 302 296 294 296 295 290 288 287 283 277 273 268 265 261 261 261 258 258 258 257
157 153 151 153 153 147 125 50 323 330 331 319 318 318 315 312 309 306 306 304 304 302 300 298 297 298 296 291 291 289 283 279 275 271 268 262 258 259 258 257 252 250 247
157 154 151 152 150 143 129 347 338 333 325 322 320 319 314 310 307 309 308 308 306 303 301 300 302 299 293 294 296 296 287 287 290 286 279 276 277 273 270 265 260 252 245
155 153 153 151 145 140 85 349 333 330 328 321 317 313 310 309 310 310 310 311 308 304 305 307 304 301 298 297 300 304 299 291 286 283 282 280 276 277 269 264 264 262 258
150 145 145 140 137 122 55 342 339 333 323 314 313 313 312 312 312 315 314 309 309 308 312 309 303 299 299 301 307 306 299 291 285 280 277 280 279 273 272 264 255 250 248
133 131 128 124 121 100 32 350 335 322 314 313 316 318 318 314 318 314 311 310 312 313 310 303 301 298 301 305 310 307 300 291 288 288 283 284 283 285 284 283 276 250 243
122 125 122 122 117 72 24 340 318 316 313 319 317 314 313 318 313 307 308 311 313 304 304 305 302 301 299 303 306 312 305 298 302 294 293 297 296 295 291 285 278 273 271
120 121 125 111 89 58 349 310 312 310 317 318 313 313 321 315 307 310 312 313 304 307 301 303 302 304 299 308 313 317 313 310 307 308 304 300 298 296 301 293 279 270 268
125 124 124 114 98 84 294 305 310 320 317 316 315 318 317 319 315 314 309 316 312 306 305 306 307 312 313 312 315 318 321 322 317 314 306 298 308 308 307 304 294 288 274
130 120 111 121 129 331 312 313 322 319 321 323 323 319 320 321 320 318 317 313 317 308 312 312 320 318 317 313 318 321 322 325 325 316 317 324 318 314 314 307 307 296 284
128 125 138 134 106 355 328 315 313 325 326 321 321 325 325 327 325 325 313 317 311 312 310 324 321 319 317 321 321 324 325 329 330 322 322 317 318 312 314 318 317 314 301
138 138 108 297 334 334 332 329 336 337 328 322 324 330 325 323 324 314 316 313 307 313 325 322 321 317 324 318 336 335 335 336 328 336 317 316 321 320 322 322 321 324 303
142 153 186 307 334 331 322 333 345 340 330 332 336 327 320 328 318 321 320 323 323 329 333 335 334 327 325 331 337 336 339 340 339 331 327 325 326 325 327 326 326 323 309